Regional Weather Roundup
Issued by NWS Sioux Falls, SD

Home | Current Version | Previous Version | Text Only | Print | Product List | Glossary On
Versions: 1 2 3 4 5 6 7 8 9 10 11 12 13 14 15 16 17 18 19 20 21 22 23 24 25 26 27 28 29 30 31 32 33 34 35 36 37 38 39 40 41 42 43 44 45 46 47 48 49 50
000
ASUS43 KFSD 240610
RWRFSD

WEATHER ROUNDUP FOR SE SOUTH DAKOTA/SW MINNESOTA/NW IOWA
NATIONAL WEATHER SERVICE SIOUX FALLS SD
100 AM CDT MON JUL 24 2017

NOTE: "FAIR" INDICATES FEW OR NO CLOUDS BELOW 12,000 FEET WITH NO
SIGNIFICANT WEATHER AND OR OBSTRUCTIONS TO VISIBILITY.


SDZ038>040-050-052>070-240700-
SOUTHEAST SOUTH DAKOTA

CITY           SKY/WX    TMP DP  RH WIND       PRES   REMARKS
BROOKINGS      CLEAR     64  58  80 E7        30.04S
CHAMBERLAIN    CLEAR     66  61  82 E6        30.00S
6HR MIN TEMP:  66; 6HR MAX TEMP:  88;

HURON          CLEAR     66  62  87 SE10      29.99F
6HR MIN TEMP:  66; 6HR MAX TEMP:  80;

MADISON        FAIR      59  59 100 E3        30.04S
MITCHELL       CLEAR     65  61  87 SE8       30.01S
6HR MIN TEMP:  64; 6HR MAX TEMP:  81;

SIOUX FALLS    CLEAR     61  59  93 CALM      30.03S
6HR MIN TEMP:  61; 6HR MAX TEMP:  78;

WINNER         FAIR      68  58  70 SE13      30.00F
YANKTON        CLEAR     64  61  90 E5        30.02S
$$

MNZ071-072-080-081-089-090-097-098-240700-
SOUTHWEST MINNESOTA

CITY           SKY/WX    TMP DP  RH WIND       PRES   REMARKS
FAIRMONT       PTCLDY    62  60  93 E5        30.03S
JACKSON        CLEAR     61  57  88 CALM      30.03S
LUVERNE        CLEAR     59  54  82 CALM      30.04S
MARSHALL       MOCLDY    62  59  90 W5        30.03S
6HR MIN TEMP:  60; 6HR MAX TEMP:  73;

MONTEVIDEO     PTCLDY    61  55  82 E3        30.03S
PIPESTONE      CLEAR     63  57  82 CALM      30.04F
REDWOOD FALLS  CLEAR     65  59  81 E3        30.02S
WINDOM         CLEAR     63  59  88 NE5       30.03S
WORTHINGTON    CLEAR     59  57  93 NW3       30.05R
$$

IAZ001>003-012>014-020>022-031-032-NEZ013-014-SDZ071-240700-
NORTHWEST IOWA

CITY           SKY/WX    TMP DP  RH WIND       PRES   REMARKS
CHEROKEE       CLEAR     59  58  96 CALM      30.03R
DENISON        CLEAR     63  61  94 CALM      30.04S
ESTHERVILLE    CLEAR     59  59 100 NE6       30.02R
ORANGE CITY    CLEAR     64  61  88 CALM      30.04R
SHELDON        CLEAR     55  55 100 CALM      30.02S
SIOUX CITY     CLEAR     63  60  90 CALM      30.02R
SPENCER        CLEAR     58  57  97 NW3       30.03R
6HR MIN TEMP:  58; 6HR MAX TEMP:  76;

STORM LAKE     CLEAR     63  57  82 N5        30.04R
$$

ABBREVIATIONS USED IN REMARKS
   TC - TEMPERATURE IN CELSIUS
  WCI - WIND CHILL INDEX
   HX - HEAT INDEX
  VSB - VISIBILITY




USA.gov is the U.S. government's official web portal to all federal, state and local government web resources and services.